Quincy, IL

8:43 AM CDT on July 22, 2017 (GMT -0500)
Quincy Regional-Baldwin

Weather History for KUIN - April, 2013

Change the Weather History Date:

Saturday, April 13, 2013

  Actual Average Record
Temperature  
Mean Temperature 45 °F 52 °F  
Max Temperature 55 °F 63 °F 89 °F (1941)
Min Temperature 34 °F 42 °F 19 °F (1950)
Degree Days  
Heating Degree Days 20 13  
Month to date heating degree days 205 195  
Since 1 July heating degree days 5258 5255  
Cooling Degree Days 0 0  
Month to date cooling degree days 4 0  
Year to date cooling degree days 4 2  
Moisture  
Dew Point 32 °F    
Average Humidity 61    
Maximum Humidity 76    
Minimum Humidity 46    
Precipitation  
Precipitation 0.02 in 0.13 in 2.05 in (1945)
Month to date precipitation 2.23 1.49  
Year to date precipitation 9.85 7.35  
Sea Level Pressure  
Sea Level Pressure 29.97 in    
Wind  
Wind Speed 10 mph (WSW)    
Max Wind Speed 21 mph    
Max Gust Speed 23 mph    
Visibility 10 miles    
Events Rain , Thunderstorm    
T = Trace of Precipitation, MM = Missing Value Source: NWS Daily Summary

Daily Weather History Graph

Daily Weather History Graph

Search for Another Location

Airport or City:

Trip Planner

Search our weather history database for the weather conditions in past years. The results will help you decide how hot, cold, wet, or windy it might be!

Date:

Astronomy

Apr. 13, 2013 Rise Set
Actual Time 6:29 AM CDT 7:41 PM CDT
Civil Twilight 6:01 AM CDT 8:09 PM CDT
Nautical Twilight 5:28 AM CDT 8:42 PM CDT
Astronomical Twilight 4:53 AM CDT 9:17 PM CDT
Moon 8:21 AM CDT (4/13) 11:05 PM CDT (4/13)
Length of Visible Light 14h 07m
Length of Day
13h 11m
Waxing Crescent, 10% of the Moon is Illuminated
Apr 13
Waxing Crescent
Apr 18
First Quarter
Apr 25
Full
May 2
Last Quarter
May 9
New

Hourly Weather History & Observations

Time (CDT) Temp. Windchill Dew Point Humidity Pressure Visibility Wind Dir Wind Speed Gust Speed Precip Events Conditions
12:54 AM 39.9 °F 34.5 °F 30.9 °F 70% 29.99 in 10.0 mi WSW 8.1 mph - N/A   Overcast
1:54 AM 39.9 °F 35.1 °F 30.9 °F 70% 29.98 in 10.0 mi WSW 6.9 mph - N/A   Overcast
2:54 AM 39.0 °F 32.8 °F 30.9 °F 73% 29.98 in 10.0 mi WSW 9.2 mph - N/A   Overcast
3:54 AM 37.0 °F 31.6 °F 30.0 °F 76% 29.98 in 10.0 mi West 6.9 mph - N/A   Partly Cloudy
4:54 AM 36.0 °F 29.0 °F 28.0 °F 73% 30.00 in 10.0 mi West 9.2 mph - N/A   Clear
5:54 AM 35.1 °F 27.4 °F 26.1 °F 70% 30.00 in 10.0 mi WNW 10.4 mph - N/A   Clear
6:54 AM 34.0 °F 28.0 °F 26.1 °F 73% 30.02 in 10.0 mi West 6.9 mph - N/A   Mostly Cloudy
7:10 AM 33.8 °F 23.9 °F 26.6 °F 75% 30.01 in 10.0 mi WNW 15.0 mph 18.4 mph N/A   Scattered Clouds
7:54 AM 36.0 °F 27.1 °F 26.1 °F 67% 30.04 in 10.0 mi West 13.8 mph 20.7 mph N/A   Clear
8:54 AM 37.9 °F 28.2 °F 26.1 °F 62% 30.05 in 10.0 mi WNW 18.4 mph - N/A   Clear
9:54 AM 39.9 °F 31.8 °F 27.0 °F 60% 30.05 in 10.0 mi WNW 15.0 mph 19.6 mph N/A   Clear
10:54 AM 43.0 °F 36.4 °F 28.9 °F 58% 30.05 in 10.0 mi West 12.7 mph - N/A   Clear
11:54 AM 46.0 °F 39.9 °F 28.9 °F 51% 30.04 in 10.0 mi West 13.8 mph 20.7 mph N/A   Clear
12:54 PM 48.0 °F - 30.0 °F 50% 30.03 in 10.0 mi WNW 8.1 mph 18.4 mph N/A   Clear
1:54 PM 52.0 °F - 32.0 °F 47% 30.01 in 10.0 mi West 12.7 mph 17.3 mph N/A   Clear
2:54 PM 52.0 °F - 32.0 °F 47% 29.99 in 10.0 mi WNW 8.1 mph - N/A   Partly Cloudy
3:54 PM 53.1 °F - 34.0 °F 48% 29.97 in 10.0 mi SW 8.1 mph - N/A   Mostly Cloudy
4:54 PM 53.1 °F - 34.0 °F 48% 29.96 in 10.0 mi SSW 5.8 mph - N/A   Scattered Clouds
5:39 PM 53.6 °F - 35.6 °F 51% 29.93 in 2.5 mi South 6.9 mph - N/A   Haze
5:54 PM 53.1 °F - 35.1 °F 50% 29.94 in 10.0 mi SSW 5.8 mph - N/A   Overcast
6:54 PM 53.6 °F - 35.6 °F 51% 29.92 in 10.0 mi SSE 3.5 mph - N/A   Overcast
7:54 PM 50.0 °F - 37.0 °F 61% 29.91 in 10.0 mi SE 5.8 mph - N/A   Scattered Clouds
8:54 PM 50.0 °F - 37.0 °F 61% 29.90 in 10.0 mi East 5.8 mph - N/A   Overcast
9:54 PM 50.0 °F - 37.0 °F 61% 29.90 in 10.0 mi ESE 8.1 mph - N/A   Overcast
10:54 PM 48.9 °F - 37.9 °F 66% 29.91 in 10.0 mi ESE 9.2 mph - 0.00 in Rain Light Rain
11:30 PM 50.0 °F - 37.4 °F 62% 29.89 in 10.0 mi ESE 10.4 mph - 0.00 in Rain , Thunderstorm Light Rain
11:45 PM 50.0 °F - 37.4 °F 62% 29.89 in 10.0 mi ESE 11.5 mph - 0.00 in   Overcast
11:54 PM 48.9 °F - 37.9 °F 66% 29.89 in 9.0 mi ESE 11.5 mph - 0.02 in Rain Rain